sat.trackr.live / text

‹ back to catalog

CARTOSAT-2B

NORAD 36795 · 2010-035A

PAYLOAD ACTIVE UNKNOWN

§ Identity

Operator
Country
IND
Launch date
2010-07-12
Launch site
SRILR
Launch vehicle
Mass (kg)
RCS (m²)
2.25

Purposes: earth_obs

External: N2YO · Heavens-Above · Gunter

§ Orbital elements

Epoch: 2026-09-15T22:48:52.185600Z

Period
97.39 min
Inclination
97.9864°
Eccentricity
0.0010050
Mean motion
14.78623277 rev/d
Perigee alt
626.6 km
Apogee alt
640.7 km
Semi-major
7,011.8 km
B*
7.8160e-6
RAAN
308.8765°
Arg perigee
257.5637°
Mean anomaly
102.4449°
Rev number
87,326

§ Raw data

CARTOSAT-2B1 36795U 10035A   26258.95060400  .00000005  00000+0  78160-5 0  99972 36795  97.9864 308.8765 0010050 257.5637 102.4449 14.78623277873260

JSON: /api/v1/satellites/36795 · /tle

For live sub-satellite position, see the globe view (requires WebGL).

§ Visibility from observer

Set your observer location to see the next 7 days of passes ≥ 10°. The values pass through the URL so the page stays shareable.

No JS? Fill the form by hand. The geolocation button needs JavaScript.

§ Radio — SatNOGS DB

ModeDescriptionDownlinkUplink
CW Beacon 2.246 GHz

1 transmitter · refreshed weekly from db.satnogs.org